Flag for Japan

Past Weather in Fukushima, Japan — Yesterday and Last 2 Weeks

Now
70 °F

Mild.


Feels Like: 75 °F
Forecast: 63 / 62 °F
Wind: 12 mph from Southeast

Location: Wakamatsu
Current Time: Sep 23, 2020 at 8:04:31 pm
Latest Report: Sep 23, 2020 at 7:00 pm
Visibility: 13 mi
Pressure29.98 "Hg
Humidity: 64%
Dew Point: 58 °F
Location of FukushimaLocation

Past Weather in Fukushima — Graph

°F

Fukushima Temperature Yesterday

Maximum temperature yesterday: 79 °F (at 1:00 pm)
Minimum temperature yesterday: 60 °F (at 5:00 am)
Average temperature yesterday: 68 °F

High & Low Weather Summary for the Past Weeks

 TemperatureHumidityPressure
High89 °F (Sep 9, 2:00 pm)100% (Sep 14, 6:00 am)30.12 "Hg (Sep 14, 6:00 am)
Low60 °F (Sep 22, 5:00 am)48% (Sep 21, 3:00 pm)29.73 "Hg (Sep 18, 1:00 pm)
Average73 °F80%29.93 "Hg
* Reported Sep 8 6:00 pm — Sep 23 6:00 pm, Fukushima. Weather by CustomWeather, © 2020

Note: Actual official high and low records may vary slightly from our data, if they occured in-between our weather recording intervals... More about our weather records

Fukushima Weather History for the Previous 24 Hours

Scroll right to see more
 ConditionsComfort  
Time TempWeatherWind HumidityBarometerVisibility
6:00 pm
Wed, Sep 23
71 °FMild.6 mph64%29.97 "Hg12 mi
5:00 pm72 °FMild.9 mph64%29.97 "Hg12 mi
4:00 pm73 °FMild.8 mph63%29.97 "Hg12 mi
2:00 pm74 °FMild.10 mph61%29.97 "Hg12 mi
1:00 pm74 °FMild.8 mph63%29.98 "Hg12 mi
12:00 pm73 °FMild.8 mph67%30.00 "Hg12 mi
11:00 am72 °FMild.10 mph72%30.01 "Hg12 mi
10:00 am71 °FMild.9 mph74%30.02 "Hg12 mi
9:00 am73 °FMild.6 mph71%30.02 "Hg12 mi
8:00 am70 °FMild.3 mph67%30.03 "Hg12 mi
7:00 am67 °FMild.2 mph72%30.03 "Hg12 mi
6:00 am67 °FMild.2 mph73%30.02 "Hg12 mi
5:00 am69 °FMild.2 mph75%30.02 "Hg12 mi
4:00 am69 °FMild.5 mph74%30.03 "Hg12 mi
3:00 am69 °FMild.6 mph72%30.01 "Hg12 mi
2:00 am69 °FMild.8 mph69%29.98 "Hg12 mi
1:00 am68 °FMild.5 mph66%30.03 "Hg12 mi
12:00 am68 °FMild.3 mph65%30.05 "Hg12 mi
11:00 pm
Tue, Sep 22
67 °FMild.5 mph65%30.06 "Hg12 mi
10:00 pm68 °FMild.6 mph65%30.07 "Hg12 mi
9:00 pm69 °FMild.5 mph66%30.06 "Hg12 mi
8:00 pm70 °FMild.5 mph68%30.05 "Hg12 mi
Weather by CustomWeather, © 2020

See weather overview